Preview of NWS' New Version of Forecast
This preview is not operational and should not be used for support decisions.
Latest weather observations around

Montgomery, Dannelly Field (KMGM)

Using English Units (Switch to International System of Units)
Date/ Time (CDT) Wind (mph) Vis. (mi) Weather Sky Cond. Temp (°F) Rel. Humidity Wind Chill (°F) Heat Index (°F) Pressure Precip. (in)
Air Dwpt 6 hour Altimeter (inHg) Sea level (inHg) 1 hr 3 hr 6 hr
Max Min
Apr 20 10:53 E 11 10 Clear CLR 63 37     38%     30.3 30.29      
Apr 20 09:53 ENE 15 10 Clear CLR 59 35     41%     30.29 30.29      
Apr 20 08:53 ENE 14 10 Clear CLR 56 35     45%     30.29 30.28      
Apr 20 07:53 NNE 9 10 Clear CLR 50 37     61% 46   30.28 30.28      
Apr 20 06:53 N 6 10 Clear CLR 46 36     68% 43   30.27 30.27      
Apr 20 05:53 N 6 10 Clear CLR 44 37     76% 41   30.25 30.25      
Apr 20 04:53 N 6 10 Clear CLR 45 36     71% 42   30.22 30.22      
Apr 20 03:53 N 6 10 Clear CLR 46 36     68% 43   30.21 30.21      
Apr 20 02:53 N 6 10 Clear CLR 48 36     63% 45   30.21 30.2      
Apr 20 01:53 N 8 10 Clear CLR 50 36     58% 47   30.21 30.2      
Apr 20 00:53 N 7 10 Clear CLR 51 36     56%     30.21 30.2      
Apr 19 23:53 NNW 9 10 Clear CLR 52 35     52%     30.22 30.21      
Apr 19 22:53 N 10 10 Clear CLR 55 36     48%     30.22 30.21      
Apr 19 21:53 N 13 10 Clear CLR 57 38     49%     30.2 30.2      
Apr 19 19:53 NNW 14 10 Clear CLR 62 40     44%     30.16 30.16      
Apr 19 18:53 NNW 9 10 Clear CLR 66 41     40%     30.14 30.13      
Apr 19 17:53 NNW 13 10 Clear CLR 70 41     35%     30.12 30.11      
Apr 19 16:53 NW 15 10 Clear CLR 72 42     34%   70 30.11 30.1      
Apr 19 15:53 WNW 13 10 Clear CLR 73 43     34%   72 30.11 30.1      
Apr 19 14:53 NNW 11 10 Clear CLR 74 42     32%   73 30.11 30.11      
Apr 19 13:53 WNW 15 10 Clear CLR 74 42     32%   73 30.13 30.12      
Apr 19 12:53 WNW 13 10 Clear CLR 74 43     33%   73 30.13 30.12      
Apr 19 11:53 NW 15 10 Clear CLR 72 45     38%   71 30.13 30.12      
Apr 19 10:53 WNW 16 10 Clear CLR 71 45     39%   70 30.12 30.11      
Apr 19 08:53 NW 11 10 Clear CLR 68 47     47%     30.09 30.08      
Apr 19 07:53 NW 11 10 Clear CLR 66 58     75%     30.07 30.06      
Apr 19 06:53 W 9 10 Mostly Clear FEW022 64 62     93%     30.04 30.03      
Apr 19 06:28 WSW 9 10 Mostly Cloudy BKN022 63 62     97%     30.02        
Apr 19 05:53 WSW 8 10 Clear CLR 63 62     97%     30.01 30      
Apr 19 04:53 WSW 9 10 Clear CLR 64 62     93%     29.99 29.98      
Apr 19 03:53 SSW 7 10 Clear CLR 64 62     93%     29.97 29.96      
Apr 19 02:53 SSW 6 10 Partly Cloudy SCT060 64 62     93%     29.98 29.97      
Apr 19 01:53 SSW 5 10 Clear CLR 64 61     90%     29.99 29.98      
Apr 18 23:53 SSW 8 10 Partly Cloudy SCT060 68 61     78%     30 29.99      
Apr 18 22:53 SSW 10 10 Clear CLR 69 60     73%     30 29.99      
Apr 18 21:53 SW 9 10 Clear CLR 71 58     63%   71 30 29.99      
Apr 18 20:53 SSW 8 10 Clear CLR 73 57     57%   73 29.98 29.97      
Apr 18 19:53 SSW 7 10 Clear CLR 73 57     57%   73 29.96 29.95      
Apr 18 18:53 SW 6 10 Clear CLR 78 57     48%   78 29.94 29.93      
Apr 18 17:53 SSW 9 10 Clear CLR 83 56     40%   82 29.93 29.92      
Apr 18 16:53 SSW 15 10 Clear CLR 84 54     36%   83 29.94 29.93      
Apr 18 15:53 SSW 11 10 Clear CLR 85 56     37%   84 29.97 29.96      
Apr 18 14:53 SW 15 10 Clear CLR 83 54     37%   82 30 29.99      
Apr 18 13:53 SW 13 10 Clear CLR 80 56     44%   80 30.03 30.02      
Apr 18 12:53 SW 8 10 Clear CLR 79 57     47%   79 30.04 30.03      
Apr 18 11:53 SW 14 10 Clear CLR 77 57     50%   77 30.05 30.04      
Apr 18 10:53 SW 14 10 Clear CLR 74 59     60%   74 30.05 30.04      
Apr 18 09:53 SW 13 10 Partly Cloudy SCT017 70 60     71%     30.06 30.05      
Apr 18 09:12 WSW 9 10 Mostly Cloudy SCT013 BKN019 66 60     81%     30.07        
Apr 18 08:53 6 10 Mostly Cloudy BKN010 BKN016 64 59     84%     30.07 30.06      
Apr 18 08:49 WSW 7 10 Cloudy OVC010 63 59     88%     30.07        
Apr 18 08:30 3 10 Mostly Cloudy BKN008 62 59     90%     30.07        
Apr 18 08:14 WSW 5 10 Mostly Clear FEW008 61 58     90%     30.07        
Apr 18 07:53 Calm 10 Clear CLR 59 58     96%     30.06 30.06      
Apr 18 06:53 Calm 3 Fog/Mist CLR 54 54     100%     30.04 30.03      
Apr 18 06:06 Calm 10 Mostly Clear FEW004 53 52     96%     30        
Apr 18 05:53 S 3 3 Fog/Mist CLR 54 54     100%     30 29.99      
Apr 18 05:13 S 3 3 Fog/Mist CLR 55 53     93%     29.99        
Apr 18 05:05 S 3 1.75 Fog/Mist CLR 54 54     100%     29.99        
Apr 18 04:53 Calm 10 Clear CLR 57 55     93%     30 29.99      
Apr 18 03:53 SW 6 10 Clear CLR 58 56     93%     29.98 29.97      
Apr 18 02:53 SW 8 10 Clear CLR 59 55     87%     29.99 29.98      
Apr 18 01:53 SSW 6 10 Clear CLR 58 52     81%     30 29.99      
Apr 18 00:53 SSW 8 10 Clear CLR 59 50     72%     30.01 30      
Apr 17 23:53 SSW 8 10 Clear CLR 61 47     60%     30.02 30.01      
Apr 17 22:53 SSW 9 10 Clear CLR 62 47     58%     30.02 30.01      
Apr 17 21:53 SSW 10 10 Clear CLR 66 47     50%     30.02 30.01      
Apr 17 20:53 S 5 10 Clear CLR 64 47     54%     30 29.99      
Apr 17 19:53 SSW 5 10 Clear CLR 69 45     42%     29.99 29.98      
Apr 17 17:53 SW 13 10 Clear CLR 78 44     30%   77 30 29.99      
Apr 17 16:53 SSW 10 10 Clear CLR 79 46     31%   78 30 30      
Apr 17 15:53 SW 8 10 Clear CLR 78 48     35%   77 30.02 30.01      
Apr 17 14:53 SSW 9 10 Clear CLR 77 47     35%   76 30.06 30.05      
Apr 17 13:53 WSW 10 10 Clear CLR 76 46     35%   75 30.09 30.08      
Apr 17 12:53 WSW 8 10 Clear CLR 73 46     38%   72 30.11 30.1      
Apr 17 11:53 SSW 8 10 Clear CLR 70 44     39%     30.14 30.13      
Jun 12 08:37 ESE 8 10 Mostly Clear FEW015 81 70     69%   84 30.16        
Jun 11 20:53 ESE 5 10 Clear CLR 79 71     77%   82 30.1 30.09      
Jun 11 16:53 SSE 9 10 Clear CLR 84 68     59%   87 30.07 30.06      
Jun 11 10:53 SE 7 10 Mostly Clear FEW028 86 68     55%   89 30.14 30.13      
Jun 11 10:10 ESE 7 10 Partly Cloudy SCT023 85 70     61%   89 30.15        
Jun 11 09:53 SE 8 10 Mostly Cloudy BKN023 84 70     63%   88 30.15 30.14      
Jun 09 16:53 S 5 10 Clear CLR 87 56     35%   86 29.92 29.91      
Jun 09 15:53 5 10 Mostly Clear FEW060 86 56     36%   85 29.93 29.92      
Jun 08 06:53 Calm 10 Clear CLR 67 58     73%     29.89 29.88      
Jun 07 10:53 NNE 10 10 Clear CLR 80 66     62%   82 29.77 29.76      
Jun 06 13:58 N 9 2 Heavy Rain FEW027 BKN034 OVC060 75 70     84%   76 29.73   0    
Jun 06 13:43 N 10 1.25 Heavy Rain FEW006 BKN022 OVC040 74 69     85%   75 29.74   0    
Jun 06 12:53 SE 11 10 Mostly Cloudy FEW021 SCT033 BKN042 80 70     71%   83 29.75 29.74      
Jun 06 09:53 NE 9 10 Mostly Cloudy BKN007 79 71     77%   82 29.76 29.75      
Jun 06 07:53 Calm 10 Mostly Clear FEW004 74 69     85%   75 29.78 29.77      
Notice The following observation data may not be complete
Jun 05 21:03   6 Rain FEW006 BKN023 OVC110          %         0    
Jun 05 19:28 N 3 10 Mostly Cloudy SCT027 BKN065 75 68     79%   76 29.79